• en Belgique
  • Liste des pays
  • À 7 jours
  • Température de l'eau
  • Carte satellitaire
  • Carte météo
  • Widgets météo
  • user-avatar
    Se connecter

    Météo par heure à Kos

    Ce jour, 11 Décembre, Lundi

    Heure Température Précipitation Vent Pression Humidité
    00:00 +13°C° 0,1 mm 4 m/s 768 mmHg 90%
    01:00 +13°C° 0,1 mm 4 m/s 768 mmHg 90%
    02:00 +13°C° 0 mm 4 m/s 768 mmHg 87%
    03:00 +13°C° 0 mm 3 m/s 768 mmHg 87%
    04:00 +13°C° 0 mm 3 m/s 768 mmHg 87%
    05:00 +12°C° 0 mm 3 m/s 769 mmHg 87%
    06:00 +12°C° 0 mm 3 m/s 769 mmHg 88%
    07:00 +12°C° 0 mm 3 m/s 769 mmHg 89%
    08:00 +12°C° 0 mm 3 m/s 769 mmHg 91%
    09:00 +14°C° 0 mm 3 m/s 769 mmHg 85%
    10:00 +16°C° 0 mm 3 m/s 770 mmHg 78%
    11:00 +18°C° 0 mm 3 m/s 770 mmHg 71%
    12:00 +18°C° 0 mm 3 m/s 770 mmHg 69%
    13:00 +19°C° 0 mm 3 m/s 770 mmHg 67%
    14:00 +19°C° 0 mm 3 m/s 770 mmHg 65%
    15:00 +18°C° 0 mm 3 m/s 770 mmHg 71%
    16:00 +17°C° 0 mm 3 m/s 770 mmHg 76%
    17:00 +15°C° 0 mm 4 m/s 770 mmHg 82%
    18:00 +14°C° 0 mm 4 m/s 770 mmHg 83%
    19:00 +14°C° 0 mm 4 m/s 770 mmHg 85%
    20:00 +14°C° 0 mm 4 m/s 770 mmHg 86%
    21:00 +13°C° 0 mm 4 m/s 770 mmHg 87%
    22:00 +13°C° 0 mm 4 m/s 770 mmHg 88%
    23:00 +13°C° 0 mm 3 m/s 770 mmHg 89%

    Demain, 12 Décembre, Mardi

    Heure Température Précipitation Vent Pression Humidité
    00:00 +13°C° 0 mm 3 m/s 770 mmHg 89%
    01:00 +13°C° 0 mm 3 m/s 770 mmHg 88%
    02:00 +13°C° 0 mm 3 m/s 770 mmHg 88%
    03:00 +14°C° 0 mm 2 m/s 770 mmHg 88%
    04:00 +14°C° 0 mm 2 m/s 770 mmHg 88%
    05:00 +14°C° 0 mm 2 m/s 770 mmHg 88%
    06:00 +14°C° 0 mm 2 m/s 770 mmHg 87%
    07:00 +14°C° 0 mm 2 m/s 770 mmHg 87%
    08:00 +14°C° 0 mm 2 m/s 770 mmHg 86%
    09:00 +15°C° 0 mm 1 m/s 770 mmHg 81%
    10:00 +18°C° 0 mm 1 m/s 770 mmHg 76%
    11:00 +19°C° 0 mm 1 m/s 770 mmHg 71%
    12:00 +20°C° 0 mm 1 m/s 770 mmHg 70%
    13:00 +20°C° 0 mm 1 m/s 770 mmHg 69%
    14:00 +20°C° 0 mm 1 m/s 769 mmHg 68%
    15:00 +18°C° 0 mm 2 m/s 769 mmHg 73%
    16:00 +17°C° 0 mm 2 m/s 769 mmHg 79%
    17:00 +16°C° 0 mm 2 m/s 769 mmHg 85%
    18:00 +15°C° 0 mm 2 m/s 769 mmHg 87%
    19:00 +15°C° 0 mm 2 m/s 769 mmHg 88%
    20:00 +14°C° 0 mm 2 m/s 769 mmHg 90%
    21:00 +13°C° 0 mm 3 m/s 769 mmHg 90%
    22:00 +13°C° 0 mm 3 m/s 769 mmHg 90%
    23:00 +12°C° 0 mm 3 m/s 769 mmHg 91%

    Après-demain, 13 Décembre, Mercredi

    Heure Température Précipitation Vent Pression Humidité
    00:00 +12°C° 0 mm 3 m/s 769 mmHg 90%
    01:00 +12°C° 0 mm 3 m/s 769 mmHg 90%
    02:00 +12°C° 0 mm 4 m/s 769 mmHg 90%
    03:00 +11°C° 0 mm 4 m/s 769 mmHg 89%
    04:00 +11°C° 0 mm 4 m/s 769 mmHg 88%
    05:00 +11°C° 0 mm 4 m/s 768 mmHg 88%
    06:00 +11°C° 0 mm 4 m/s 769 mmHg 86%
    07:00 +11°C° 0 mm 4 m/s 769 mmHg 84%
    08:00 +11°C° 0 mm 4 m/s 769 mmHg 82%
    09:00 +13°C° 0 mm 3 m/s 769 mmHg 73%
    10:00 +16°C° 0 mm 3 m/s 769 mmHg 65%
    11:00 +18°C° 0 mm 3 m/s 769 mmHg 57%
    12:00 +18°C° 0 mm 3 m/s 768 mmHg 55%
    13:00 +19°C° 0 mm 3 m/s 768 mmHg 53%
    14:00 +19°C° 0 mm 3 m/s 767 mmHg 51%
    15:00 +18°C° 0 mm 3 m/s 767 mmHg 58%
    16:00 +16°C° 0 mm 3 m/s 767 mmHg 65%
    17:00 +14°C° 0 mm 3 m/s 767 mmHg 72%
    18:00 +13°C° 0 mm 3 m/s 767 mmHg 73%
    19:00 +13°C° 0 mm 3 m/s 767 mmHg 75%
    20:00 +13°C° 0 mm 2 m/s 767 mmHg 76%
    21:00 +12°C° 0 mm 3 m/s 767 mmHg 77%
    22:00 +12°C° 0 mm 3 m/s 767 mmHg 77%
    23:00 +11°C° 0 mm 3 m/s 767 mmHg 77%

    14 Décembre, Jeudi

    Heure Température Précipitation Vent Pression Humidité
    00:00 +11°C° 0 mm 3 m/s 767 mmHg 76%
    01:00 +11°C° 0 mm 3 m/s 766 mmHg 75%
    02:00 +11°C° 0 mm 3 m/s 766 mmHg 75%
    03:00 +11°C° 0 mm 3 m/s 766 mmHg 74%
    04:00 +11°C° 0 mm 3 m/s 766 mmHg 73%
    05:00 +10°C° 0 mm 2 m/s 765 mmHg 73%
    06:00 +11°C° 0 mm 3 m/s 765 mmHg 71%
    07:00 +11°C° 0 mm 3 m/s 766 mmHg 69%
    08:00 +11°C° 0 mm 3 m/s 766 mmHg 68%
    09:00 +13°C° 0 mm 3 m/s 766 mmHg 63%
    10:00 +16°C° 0 mm 3 m/s 766 mmHg 58%
    11:00 +18°C° 0 mm 3 m/s 766 mmHg 54%
    12:00 +18°C° 0 mm 3 m/s 765 mmHg 54%
    13:00 +19°C° 0 mm 3 m/s 765 mmHg 54%
    14:00 +19°C° 0 mm 3 m/s 764 mmHg 55%
    15:00 +18°C° 0 mm 3 m/s 764 mmHg 62%
    16:00 +16°C° 0 mm 3 m/s 764 mmHg 70%
    17:00 +14°C° 0 mm 3 m/s 764 mmHg 78%
    18:00 +13°C° 0 mm 3 m/s 764 mmHg 81%
    19:00 +14°C° 0 mm 2 m/s 764 mmHg 84%
    20:00 +13°C° 0 mm 2 m/s 765 mmHg 86%
    21:00 +13°C° 0 mm 2 m/s 765 mmHg 86%
    22:00 +13°C° 0 mm 2 m/s 765 mmHg 87%
    23:00 +12°C° 0 mm 2 m/s 765 mmHg 87%

    15 Décembre, Vendredi

    Heure Température Précipitation Vent Pression Humidité
    00:00 +11°C° 0 mm 3 m/s 765 mmHg 87%
    01:00 +11°C° 0 mm 3 m/s 764 mmHg 86%
    02:00 +11°C° 0 mm 3 m/s 764 mmHg 86%
    03:00 +11°C° 0 mm 3 m/s 764 mmHg 85%
    04:00 +10°C° 0 mm 3 m/s 764 mmHg 84%
    05:00 +10°C° 0 mm 3 m/s 764 mmHg 83%
    06:00 +10°C° 0 mm 2 m/s 764 mmHg 80%
    07:00 +10°C° 0 mm 2 m/s 765 mmHg 78%
    08:00 +10°C° 0 mm 2 m/s 765 mmHg 75%
    09:00 +14°C° 0 mm 2 m/s 765 mmHg 68%
    10:00 +16°C° 0 mm 2 m/s 765 mmHg 61%
    11:00 +18°C° 0 mm 2 m/s 765 mmHg 55%
    12:00 +18°C° 0 mm 3 m/s 765 mmHg 56%
    13:00 +19°C° 0 mm 4 m/s 765 mmHg 57%
    14:00 +20°C° 0 mm 4 m/s 764 mmHg 58%
    15:00 +17°C° 0 mm 5 m/s 765 mmHg 68%
    16:00 +16°C° 0 mm 5 m/s 765 mmHg 79%
    17:00 +14°C° 0 mm 6 m/s 765 mmHg 89%
    18:00 +14°C° 0 mm 6 m/s 765 mmHg 91%
    19:00 +14°C° 0 mm 5 m/s 765 mmHg 92%
    20:00 +13°C° 0 mm 5 m/s 765 mmHg 94%
    21:00 +13°C° 0 mm 5 m/s 766 mmHg 94%
    22:00 +13°C° 0 mm 5 m/s 766 mmHg 93%
    23:00 +13°C° 0 mm 5 m/s 766 mmHg 93%

    16 Décembre, Samedi

    Heure Température Précipitation Vent Pression Humidité
    00:00 +13°C° 0,1 mm 5 m/s 766 mmHg 91%
    01:00 +14°C° 0,1 mm 5 m/s 766 mmHg 90%
    02:00 +14°C° 0,1 mm 5 m/s 766 mmHg 89%
    03:00 +14°C° 0,1 mm 5 m/s 766 mmHg 88%
    04:00 +14°C° 0,1 mm 5 m/s 766 mmHg 88%
    05:00 +14°C° 0,1 mm 5 m/s 766 mmHg 87%
    06:00 +14°C° 0,1 mm 5 m/s 766 mmHg 87%
    07:00 +13°C° 0,1 mm 5 m/s 766 mmHg 86%
    08:00 +13°C° 0,1 mm 5 m/s 766 mmHg 85%
    09:00 +15°C° 0 mm 5 m/s 766 mmHg 80%
    10:00 +16°C° 0 mm 5 m/s 766 mmHg 75%
    11:00 +17°C° 0 mm 5 m/s 766 mmHg 70%
    12:00 +17°C° 0 mm 5 m/s 766 mmHg 68%
    13:00 +19°C° 0 mm 5 m/s 765 mmHg 66%
    14:00 +19°C° 0 mm 5 m/s 765 mmHg 64%
    15:00 +17°C° 0 mm 6 m/s 765 mmHg 70%
    16:00 +16°C° 0 mm 6 m/s 765 mmHg 77%
    17:00 +14°C° 0 mm 6 m/s 765 mmHg 83%
    18:00 +14°C° 0 mm 6 m/s 765 mmHg 85%
    19:00 +13°C° 0 mm 6 m/s 766 mmHg 87%
    20:00 +13°C° 0 mm 6 m/s 766 mmHg 89%
    21:00 +12°C° 0 mm 7 m/s 766 mmHg 88%
    22:00 +12°C° 0 mm 7 m/s 765 mmHg 88%
    23:00 +12°C° 0 mm 8 m/s 765 mmHg 88%
    Voir plus